Time,TemperatureF,DewpointF,PressureIn,WindDirection,WindDirectionDegrees,WindSpeedMPH,WindSpeedGustMPH,Humidity,HourlyPrecipIn,Conditions,Clouds,dailyrainin,SoftwareType,DateUTC
2013-10-29 00:05:00,51.6,50.5,30.16,SW,236,0.0,1.0,96,0.00,,,0.00,Wunderground v.1.15,2013-10-29 05:05:00,
2013-10-29 00:11:00,51.8,50.7,30.15,SW,236,0.0,0.0,96,0.00,,,0.00,Wunderground v.1.15,2013-10-29 05:11:00,
2013-10-29 00:17:00,52.1,51.0,30.15,SE,141,0.0,0.0,96,0.00,,,0.00,Wunderground v.1.15,2013-10-29 05:17:00,
2013-10-29 00:23:00,52.3,51.2,30.15,SE,141,0.0,0.0,96,0.00,,,0.00,Wunderground v.1.15,2013-10-29 05:23:00,
2013-10-29 00:29:00,52.4,51.3,30.14,SE,141,0.0,0.0,96,0.00,,,0.00,Wunderground v.1.15,2013-10-29 05:29:00,
2013-10-29 00:34:00,52.5,51.4,30.14,SE,141,0.0,2.0,96,0.00,,,0.00,Wunderground v.1.15,2013-10-29 05:34:00,
2013-10-29 00:40:00,52.5,51.4,30.13,SE,141,0.0,2.0,96,0.00,,,0.00,Wunderground v.1.15,2013-10-29 05:40:00,
2013-10-29 00:46:00,52.6,51.5,30.13,SE,141,0.0,2.0,96,0.00,,,0.00,Wunderground v.1.15,2013-10-29 05:46:00,
2013-10-29 00:52:00,52.8,51.7,30.14,SE,141,0.0,2.0,96,0.00,,,0.00,Wunderground v.1.15,2013-10-29 05:52:00,
2013-10-29 00:57:00,52.8,51.4,30.13,SE,141,0.0,2.0,95,0.00,,,0.00,Wunderground v.1.15,2013-10-29 05:57:00,
2013-10-29 01:03:00,52.8,51.4,30.13,SE,141,0.0,0.0,95,0.00,,,0.00,Wunderground v.1.15,2013-10-29 06:03:00,
2013-10-29 01:09:00,52.8,51.4,30.13,SE,141,0.0,0.0,95,0.00,,,0.00,Wunderground v.1.15,2013-10-29 06:09:00,
2013-10-29 01:15:00,52.9,51.5,30.13,SE,141,0.0,0.0,95,0.00,,,0.00,Wunderground v.1.15,2013-10-29 06:15:00,
2013-10-29 01:21:00,53.0,51.6,30.13,SE,141,0.0,0.0,95,0.00,,,0.00,Wunderground v.1.15,2013-10-29 06:21:00,
2013-10-29 01:27:00,53.1,51.7,30.12,SE,141,0.0,0.0,95,0.00,,,0.00,Wunderground v.1.15,2013-10-29 06:27:00,
2013-10-29 01:33:00,53.2,51.8,30.13,SE,141,0.0,0.0,95,0.00,,,0.00,Wunderground v.1.15,2013-10-29 06:33:00,
2013-10-29 01:38:00,53.2,51.8,30.13,SE,141,0.0,0.0,95,0.00,,,0.00,Wunderground v.1.15,2013-10-29 06:38:00,
2013-10-29 01:44:00,53.0,51.6,30.13,SE,141,0.0,0.0,95,0.00,,,0.00,Wunderground v.1.15,2013-10-29 06:44:00,
2013-10-29 01:50:00,53.0,51.6,30.13,SE,141,0.0,0.0,95,0.00,,,0.00,Wunderground v.1.15,2013-10-29 06:50:00,
2013-10-29 01:56:00,53.2,51.8,30.12,ESE,114,0.0,1.0,95,0.00,,,0.00,Wunderground v.1.15,2013-10-29 06:56:00,
2013-10-29 02:01:00,53.3,51.9,30.12,SE,125,0.0,1.0,95,0.00,,,0.00,Wunderground v.1.15,2013-10-29 07:01:00,
2013-10-29 02:07:00,53.5,52.1,30.12,ESE,120,1.0,1.0,95,0.00,,,0.00,Wunderground v.1.15,2013-10-29 07:07:00,
2013-10-29 02:13:00,53.7,52.3,30.12,ESE,118,1.0,1.0,95,0.00,,,0.00,Wunderground v.1.15,2013-10-29 07:13:00,
2013-10-29 02:19:00,53.8,52.4,30.11,East,86,1.0,3.0,95,0.00,,,0.00,Wunderground v.1.15,2013-10-29 07:19:00,
2013-10-29 02:25:00,53.8,52.4,30.11,East,96,1.0,1.0,95,0.00,,,0.00,Wunderground v.1.15,2013-10-29 07:25:00,
2013-10-29 02:31:00,53.9,52.5,30.12,East,97,0.0,0.0,95,0.00,,,0.00,Wunderground v.1.15,2013-10-29 07:31:00,
2013-10-29 02:37:00,54.0,52.6,30.13,East,97,0.0,0.0,95,0.00,,,0.00,Wunderground v.1.15,2013-10-29 07:37:00,
2013-10-29 02:42:00,54.2,52.8,30.13,SSE,153,0.0,0.0,95,0.00,,,0.00,Wunderground v.1.15,2013-10-29 07:42:00,
2013-10-29 02:48:00,54.2,52.8,30.12,SSE,153,0.0,0.0,95,0.00,,,0.00,Wunderground v.1.15,2013-10-29 07:48:00,
2013-10-29 02:54:00,54.2,52.8,30.13,SSE,153,0.0,0.0,95,0.16,,,0.02,Wunderground v.1.15,2013-10-29 07:54:00,
2013-10-29 03:00:00,54.3,52.9,30.12,SE,136,0.0,0.0,95,0.21,,,0.05,Wunderground v.1.15,2013-10-29 08:00:00,
2013-10-29 03:06:00,54.3,52.9,30.13,ESE,121,0.0,0.0,95,0.12,,,0.07,Wunderground v.1.15,2013-10-29 08:06:00,
2013-10-29 03:11:00,54.3,52.9,30.11,ESE,111,0.0,3.0,95,0.11,,,0.07,Wunderground v.1.15,2013-10-29 08:11:00,
2013-10-29 03:17:00,54.3,52.9,30.10,ESE,120,2.0,4.0,95,0.42,,,0.10,Wunderground v.1.15,2013-10-29 08:17:00,
2013-10-29 03:23:00,54.3,52.9,30.10,SE,124,3.0,4.0,95,0.10,,,0.11,Wunderground v.1.15,2013-10-29 08:23:00,
2013-10-29 03:29:00,54.2,53.1,30.10,SE,131,2.0,4.0,96,0.05,,,0.11,Wunderground v.1.15,2013-10-29 08:29:00,
2013-10-29 03:34:00,54.3,53.2,30.10,ESE,121,1.0,3.0,96,0.00,,,0.11,Wunderground v.1.15,2013-10-29 08:34:00,
2013-10-29 03:40:00,54.4,53.3,30.10,East,84,1.0,3.0,96,0.00,,,0.11,Wunderground v.1.15,2013-10-29 08:40:00,
2013-10-29 03:46:00,54.5,53.4,30.10,East,100,0.0,3.0,96,0.00,,,0.11,Wunderground v.1.15,2013-10-29 08:46:00,
2013-10-29 03:52:00,54.6,53.5,30.09,ENE,73,0.0,3.0,96,0.00,,,0.11,Wunderground v.1.15,2013-10-29 08:52:00,
2013-10-29 03:57:00,54.6,53.5,30.09,NE,51,1.0,3.0,96,0.00,,,0.11,Wunderground v.1.15,2013-10-29 08:57:00,
2013-10-29 04:03:00,54.7,53.6,30.09,ENE,69,1.0,1.0,96,0.00,,,0.11,Wunderground v.1.15,2013-10-29 09:03:00,
2013-10-29 04:09:00,54.7,53.6,30.08,East,91,1.0,1.0,96,0.00,,,0.12,Wunderground v.1.15,2013-10-29 09:09:00,
2013-10-29 04:15:00,54.7,53.6,30.08,NE,56,1.0,2.0,96,0.00,,,0.12,Wunderground v.1.15,2013-10-29 09:15:00,
2013-10-29 04:20:00,54.7,53.6,30.08,ENE,72,1.0,2.0,96,0.00,,,0.12,Wunderground v.1.15,2013-10-29 09:20:00,
2013-10-29 04:26:00,54.7,53.6,30.08,ENE,58,1.0,2.0,96,0.00,,,0.12,Wunderground v.1.15,2013-10-29 09:26:00,
2013-10-29 04:32:00,54.7,53.6,30.08,ESE,105,1.0,5.0,96,0.61,,,0.16,Wunderground v.1.15,2013-10-29 09:32:00,
2013-10-29 04:38:00,54.7,53.6,30.07,ESE,105,1.0,5.0,96,0.13,,,0.18,Wunderground v.1.15,2013-10-29 09:38:00,
2013-10-29 04:43:00,54.7,53.6,30.07,ENE,63,1.0,5.0,96,0.10,,,0.18,Wunderground v.1.15,2013-10-29 09:43:00,
2013-10-29 04:49:00,54.7,53.6,30.06,ENE,70,1.0,5.0,96,0.05,,,0.18,Wunderground v.1.15,2013-10-29 09:49:00,
2013-10-29 04:55:00,54.7,53.6,30.05,ENE,63,0.0,5.0,96,0.00,,,0.18,Wunderground v.1.15,2013-10-29 09:55:00,
2013-10-29 05:00:00,54.8,53.7,30.05,ENE,64,0.0,0.0,96,0.00,,,0.18,Wunderground v.1.15,2013-10-29 10:00:00,
2013-10-29 05:05:00,55.0,53.9,30.06,ENE,63,0.0,0.0,96,0.00,,,0.18,Wunderground v.1.15,2013-10-29 10:05:00,
2013-10-29 05:11:00,55.3,54.5,30.05,ENE,68,0.0,0.0,97,0.00,,,0.18,Wunderground v.1.15,2013-10-29 10:11:00,
2013-10-29 05:17:00,55.3,54.2,30.05,ENE,68,0.0,0.0,96,0.00,,,0.18,Wunderground v.1.15,2013-10-29 10:17:00,
2013-10-29 05:22:00,55.4,54.3,30.06,ENE,68,0.0,0.0,96,0.00,,,0.18,Wunderground v.1.15,2013-10-29 10:22:00,
2013-10-29 05:28:00,55.4,54.3,30.06,ENE,68,0.0,0.0,96,0.00,,,0.18,Wunderground v.1.15,2013-10-29 10:28:00,
2013-10-29 05:34:00,55.5,54.7,30.05,ENE,68,0.0,3.0,97,0.00,,,0.18,Wunderground v.1.15,2013-10-29 10:34:00,
2013-10-29 05:40:00,55.6,54.5,30.05,ENE,68,0.0,3.0,96,0.00,,,0.18,Wunderground v.1.15,2013-10-29 10:40:00,
2013-10-29 05:45:00,55.6,54.5,30.06,NE,37,0.0,3.0,96,0.00,,,0.18,Wunderground v.1.15,2013-10-29 10:45:00,
2013-10-29 05:51:00,55.8,55.0,30.05,NE,51,0.0,3.0,97,0.00,,,0.18,Wunderground v.1.15,2013-10-29 10:51:00,
2013-10-29 05:57:00,55.9,55.1,30.05,NE,51,0.0,3.0,97,0.00,,,0.18,Wunderground v.1.15,2013-10-29 10:57:00,
2013-10-29 06:03:00,56.0,55.2,30.05,ENE,60,0.0,0.0,97,0.00,,,0.18,Wunderground v.1.15,2013-10-29 11:03:00,
2013-10-29 06:08:00,56.0,55.2,30.05,NNE,12,0.0,0.0,97,0.00,,,0.18,Wunderground v.1.15,2013-10-29 11:08:00,
2013-10-29 06:14:00,56.1,55.3,30.06,WSW,258,0.0,2.0,97,0.00,,,0.18,Wunderground v.1.15,2013-10-29 11:14:00,
2013-10-29 06:20:00,56.2,55.4,30.06,West,271,0.0,0.0,97,0.00,,,0.18,Wunderground v.1.15,2013-10-29 11:20:00,
2013-10-29 06:26:00,56.2,55.4,30.06,West,271,0.0,0.0,97,0.00,,,0.18,Wunderground v.1.15,2013-10-29 11:26:00,
2013-10-29 06:32:00,56.3,55.5,30.05,ESE,120,0.0,1.0,97,0.00,,,0.18,Wunderground v.1.15,2013-10-29 11:32:00,
2013-10-29 06:38:00,56.4,55.6,30.05,ESE,110,0.0,1.0,97,0.00,,,0.18,Wunderground v.1.15,2013-10-29 11:38:00,
2013-10-29 06:44:00,56.5,55.7,30.05,South,185,1.0,2.0,97,0.00,,,0.18,Wunderground v.1.15,2013-10-29 11:44:00,
2013-10-29 06:49:00,56.4,55.6,30.05,South,181,0.0,2.0,97,0.00,,,0.18,Wunderground v.1.15,2013-10-29 11:49:00,
2013-10-29 06:55:00,56.4,55.6,30.06,South,181,0.0,0.0,97,0.00,,,0.18,Wunderground v.1.15,2013-10-29 11:55:00,
2013-10-29 07:00:00,56.4,55.6,30.06,South,181,0.0,0.0,97,0.00,,,0.18,Wunderground v.1.15,2013-10-29 12:00:00,
2013-10-29 07:06:00,56.5,55.7,30.05,ESE,107,0.0,2.0,97,0.00,,,0.18,Wunderground v.1.15,2013-10-29 12:06:00,
2013-10-29 07:11:00,56.5,55.7,30.06,ESE,114,1.0,1.0,97,0.00,,,0.18,Wunderground v.1.15,2013-10-29 12:11:00,
2013-10-29 07:17:00,56.6,55.8,30.06,ESE,113,1.0,1.0,97,0.00,,,0.18,Wunderground v.1.15,2013-10-29 12:17:00,
2013-10-29 07:23:00,56.6,55.8,30.06,ESE,105,0.0,1.0,97,0.00,,,0.19,Wunderground v.1.15,2013-10-29 12:23:00,
2013-10-29 07:29:00,56.6,55.8,30.06,ESE,108,1.0,1.0,97,0.07,,,0.20,Wunderground v.1.15,2013-10-29 12:29:00,
2013-10-29 07:34:00,56.7,55.9,30.05,SE,125,0.0,2.0,97,0.07,,,0.20,Wunderground v.1.15,2013-10-29 12:34:00,
2013-10-29 07:40:00,56.7,55.9,30.06,ESE,122,0.0,2.0,97,0.05,,,0.21,Wunderground v.1.15,2013-10-29 12:40:00,
2013-10-29 07:46:00,56.8,56.0,30.07,SW,224,0.0,2.0,97,0.16,,,0.22,Wunderground v.1.15,2013-10-29 12:46:00,
2013-10-29 07:52:00,56.9,56.1,30.07,SE,135,0.0,2.0,97,0.12,,,0.23,Wunderground v.1.15,2013-10-29 12:52:00,
2013-10-29 07:57:00,57.0,56.2,30.06,SE,129,0.0,2.0,97,0.09,,,0.24,Wunderground v.1.15,2013-10-29 12:57:00,
2013-10-29 08:03:00,57.0,56.2,30.07,SE,129,0.0,0.0,97,0.23,,,0.27,Wunderground v.1.15,2013-10-29 13:03:00,
2013-10-29 08:09:00,57.1,56.3,30.07,ESE,105,0.0,1.0,97,0.11,,,0.28,Wunderground v.1.15,2013-10-29 13:09:00,
2013-10-29 08:15:00,57.2,56.4,30.07,ESE,105,0.0,0.0,97,0.06,,,0.29,Wunderground v.1.15,2013-10-29 13:15:00,
2013-10-29 08:20:00,57.4,56.6,30.07,ESE,105,0.0,0.0,97,0.06,,,0.29,Wunderground v.1.15,2013-10-29 13:20:00,
2013-10-29 08:26:00,57.4,56.6,30.07,WSW,249,0.0,0.0,97,0.05,,,0.29,Wunderground v.1.15,2013-10-29 13:26:00,
2013-10-29 08:32:00,57.5,56.7,30.07,WSW,249,0.0,3.0,97,0.00,,,0.29,Wunderground v.1.15,2013-10-29 13:32:00,
2013-10-29 08:38:00,57.8,57.0,30.07,South,183,0.0,3.0,97,0.00,,,0.29,Wunderground v.1.15,2013-10-29 13:38:00,
2013-10-29 08:43:00,57.9,57.1,30.07,South,183,0.0,3.0,97,0.00,,,0.29,Wunderground v.1.15,2013-10-29 13:43:00,
2013-10-29 08:49:00,58.0,57.2,30.08,South,183,0.0,3.0,97,0.00,,,0.29,Wunderground v.1.15,2013-10-29 13:49:00,
2013-10-29 08:55:00,58.3,57.5,30.08,South,183,0.0,3.0,97,0.00,,,0.29,Wunderground v.1.15,2013-10-29 13:55:00,
2013-10-29 09:00:00,58.5,57.7,30.08,South,183,0.0,0.0,97,0.00,,,0.29,Wunderground v.1.15,2013-10-29 14:00:00,
2013-10-29 09:06:00,58.8,58.0,30.08,South,184,0.0,0.0,97,0.00,,,0.29,Wunderground v.1.15,2013-10-29 14:06:00,
2013-10-29 09:12:00,59.1,58.2,30.08,NNW,328,0.0,1.0,97,0.00,,,0.29,Wunderground v.1.15,2013-10-29 14:12:00,
2013-10-29 09:18:00,59.3,58.4,30.08,West,271,0.0,1.0,97,0.00,,,0.29,Wunderground v.1.15,2013-10-29 14:18:00,
2013-10-29 09:23:00,59.7,58.8,30.08,West,271,0.0,0.0,97,0.00,,,0.29,Wunderground v.1.15,2013-10-29 14:23:00,
2013-10-29 09:29:00,60.2,59.3,30.08,WNW,289,0.0,0.0,97,0.00,,,0.29,Wunderground v.1.15,2013-10-29 14:29:00,
2013-10-29 09:35:00,60.4,59.5,30.08,WNW,289,0.0,1.0,97,0.00,,,0.29,Wunderground v.1.15,2013-10-29 14:35:00,
2013-10-29 09:41:00,60.4,59.5,30.08,WNW,290,0.0,1.0,97,0.00,,,0.29,Wunderground v.1.15,2013-10-29 14:41:00,
2013-10-29 09:46:00,60.5,59.6,30.08,WNW,290,0.0,1.0,97,0.00,,,0.29,Wunderground v.1.15,2013-10-29 14:46:00,
2013-10-29 09:52:00,60.7,59.8,30.08,WNW,289,0.0,1.0,97,0.00,,,0.29,Wunderground v.1.15,2013-10-29 14:52:00,
2013-10-29 09:58:00,60.9,60.0,30.08,WNW,290,0.0,1.0,97,0.00,,,0.29,Wunderground v.1.15,2013-10-29 14:58:00,
2013-10-29 10:04:00,61.0,60.1,30.09,East,92,0.0,0.0,97,0.00,,,0.29,Wunderground v.1.15,2013-10-29 15:04:00,
2013-10-29 10:10:00,61.2,60.3,30.08,East,91,0.0,1.0,97,0.00,,,0.29,Wunderground v.1.15,2013-10-29 15:10:00,
2013-10-29 10:16:00,61.4,60.5,30.08,East,95,0.0,1.0,97,0.00,,,0.29,Wunderground v.1.15,2013-10-29 15:16:00,
2013-10-29 10:22:00,61.6,60.7,30.08,East,95,0.0,0.0,97,0.00,,,0.29,Wunderground v.1.15,2013-10-29 15:22:00,
2013-10-29 10:27:00,61.7,60.8,30.08,East,95,0.0,0.0,97,0.00,,,0.29,Wunderground v.1.15,2013-10-29 15:27:00,
2013-10-29 10:33:00,61.8,60.9,30.08,East,94,0.0,2.0,97,0.00,,,0.29,Wunderground v.1.15,2013-10-29 15:33:00,
2013-10-29 10:39:00,61.9,61.0,30.08,East,95,0.0,2.0,97,0.00,,,0.29,Wunderground v.1.15,2013-10-29 15:39:00,
2013-10-29 10:45:00,62.0,61.1,30.08,East,91,0.0,2.0,97,0.00,,,0.29,Wunderground v.1.15,2013-10-29 15:45:00,
2013-10-29 10:51:00,62.2,61.3,30.08,West,259,0.0,2.0,97,0.00,,,0.29,Wunderground v.1.15,2013-10-29 15:51:00,
2013-10-29 10:57:00,62.5,61.6,30.08,West,270,0.0,2.0,97,0.00,,,0.29,Wunderground v.1.15,2013-10-29 15:57:00,
2013-10-29 11:03:00,62.6,61.4,30.07,West,269,0.0,0.0,96,0.00,,,0.29,Wunderground v.1.15,2013-10-29 16:03:00,
2013-10-29 11:09:00,62.8,61.6,30.07,SW,233,0.0,1.0,96,0.00,,,0.29,Wunderground v.1.15,2013-10-29 16:09:00,
2013-10-29 11:14:00,63.0,61.8,30.07,WSW,243,0.0,1.0,96,0.00,,,0.29,Wunderground v.1.15,2013-10-29 16:14:00,
2013-10-29 11:20:00,63.5,62.3,30.07,West,276,0.0,1.0,96,0.00,,,0.29,Wunderground v.1.15,2013-10-29 16:20:00,
2013-10-29 11:26:00,64.0,62.8,30.07,West,267,0.0,1.0,96,0.00,,,0.29,Wunderground v.1.15,2013-10-29 16:26:00,
2013-10-29 11:32:00,64.6,63.1,30.07,WSW,238,1.0,1.0,95,0.00,,,0.29,Wunderground v.1.15,2013-10-29 16:32:00,
2013-10-29 11:37:00,65.2,63.4,30.07,WSW,252,1.0,3.0,94,0.00,,,0.29,Wunderground v.1.15,2013-10-29 16:37:00,
2013-10-29 11:43:00,65.6,63.5,30.07,WSW,252,2.0,2.0,93,0.00,,,0.29,Wunderground v.1.15,2013-10-29 16:43:00,
2013-10-29 11:49:00,66.1,63.7,30.06,SSW,208,2.0,3.0,92,0.00,,,0.29,Wunderground v.1.15,2013-10-29 16:49:00,
2013-10-29 11:55:00,66.7,64.0,30.06,SW,228,2.0,2.0,91,0.00,,,0.29,Wunderground v.1.15,2013-10-29 16:55:00,
2013-10-29 12:00:00,67.1,64.1,30.06,WSW,257,1.0,1.0,90,0.00,,,0.29,Wunderground v.1.15,2013-10-29 17:00:00,
2013-10-29 12:06:00,67.5,64.5,30.06,WSW,243,1.0,4.0,90,0.00,,,0.29,Wunderground v.1.15,2013-10-29 17:06:00,
2013-10-29 12:12:00,68.0,64.6,30.06,SW,225,2.0,2.0,89,0.00,,,0.29,Wunderground v.1.15,2013-10-29 17:12:00,
2013-10-29 12:17:00,68.0,64.3,30.05,WSW,239,2.0,2.0,88,0.00,,,0.29,Wunderground v.1.15,2013-10-29 17:17:00,
2013-10-29 12:23:00,68.1,64.4,30.05,WSW,246,2.0,2.0,88,0.00,,,0.29,Wunderground v.1.15,2013-10-29 17:23:00,
2013-10-29 12:29:00,68.1,64.4,30.05,SW,225,2.0,3.0,88,0.00,,,0.29,Wunderground v.1.15,2013-10-29 17:29:00,
2013-10-29 12:35:00,68.2,64.2,30.05,SW,219,2.0,3.0,87,0.00,,,0.29,Wunderground v.1.15,2013-10-29 17:35:00,
2013-10-29 12:40:00,68.3,64.3,30.04,WSW,249,2.0,3.0,87,0.00,,,0.29,Wunderground v.1.15,2013-10-29 17:40:00,
2013-10-29 12:46:00,68.3,63.9,30.04,WSW,248,2.0,4.0,86,0.00,,,0.29,Wunderground v.1.15,2013-10-29 17:46:00,
2013-10-29 12:52:00,68.5,64.1,30.03,West,259,3.0,4.0,86,0.00,,,0.29,Wunderground v.1.15,2013-10-29 17:52:00,
2013-10-29 12:58:00,68.8,64.1,30.03,SW,225,3.0,5.0,85,0.00,,,0.29,Wunderground v.1.15,2013-10-29 17:58:00,
2013-10-29 13:03:00,69.1,64.1,30.03,West,270,3.0,4.0,84,0.00,,,0.29,Wunderground v.1.15,2013-10-29 18:03:00,
2013-10-29 13:09:00,69.4,64.4,30.02,WSW,256,3.0,4.0,84,0.00,,,0.29,Wunderground v.1.15,2013-10-29 18:09:00,
2013-10-29 13:15:00,69.8,64.4,30.01,SW,225,3.0,4.0,83,0.00,,,0.29,Wunderground v.1.15,2013-10-29 18:15:00,
2013-10-29 13:21:00,69.9,64.5,30.01,WSW,250,3.0,3.0,83,0.00,,,0.29,Wunderground v.1.15,2013-10-29 18:21:00,
2013-10-29 13:27:00,69.8,64.1,30.01,West,265,3.0,5.0,82,0.00,,,0.29,Wunderground v.1.15,2013-10-29 18:27:00,
2013-10-29 13:33:00,69.8,64.1,30.01,WSW,256,3.0,5.0,82,0.00,,,0.29,Wunderground v.1.15,2013-10-29 18:33:00,
2013-10-29 13:39:00,69.8,64.1,30.00,SSW,205,3.0,5.0,82,0.00,,,0.29,Wunderground v.1.15,2013-10-29 18:39:00,
2013-10-29 13:44:00,69.9,64.2,29.99,SW,226,3.0,5.0,82,0.00,,,0.29,Wunderground v.1.15,2013-10-29 18:44:00,
2013-10-29 13:50:00,70.0,64.6,29.99,WNW,288,3.0,3.0,83,0.00,,,0.29,Wunderground v.1.15,2013-10-29 18:50:00,
2013-10-29 13:56:00,69.9,64.2,29.99,WNW,297,2.0,5.0,82,0.00,,,0.29,Wunderground v.1.15,2013-10-29 18:56:00,
2013-10-29 14:02:00,69.7,64.0,29.99,SW,232,2.0,2.0,82,0.00,,,0.29,Wunderground v.1.15,2013-10-29 19:02:00,
2013-10-29 14:08:00,69.6,63.9,29.99,SW,226,2.0,4.0,82,0.00,,,0.29,Wunderground v.1.15,2013-10-29 19:08:00,
2013-10-29 14:14:00,69.5,64.1,29.98,SW,228,2.0,2.0,83,0.00,,,0.29,Wunderground v.1.15,2013-10-29 19:14:00,
2013-10-29 14:20:00,69.5,64.1,29.98,SW,233,2.0,2.0,83,0.00,,,0.29,Wunderground v.1.15,2013-10-29 19:20:00,
2013-10-29 14:26:00,69.7,64.3,29.98,West,265,2.0,3.0,83,0.00,,,0.29,Wunderground v.1.15,2013-10-29 19:26:00,
2013-10-29 14:31:00,69.8,64.1,29.98,SW,226,2.0,7.0,82,0.00,,,0.29,Wunderground v.1.15,2013-10-29 19:31:00,
2013-10-29 14:37:00,69.9,64.5,29.98,West,274,2.0,7.0,83,0.00,,,0.29,Wunderground v.1.15,2013-10-29 19:37:00,
2013-10-29 14:43:00,70.0,64.2,29.97,SW,236,2.0,7.0,82,0.00,,,0.29,Wunderground v.1.15,2013-10-29 19:43:00,
2013-10-29 14:49:00,70.1,64.3,29.97,West,277,2.0,7.0,82,0.00,,,0.29,Wunderground v.1.15,2013-10-29 19:49:00,
2013-10-29 14:54:00,70.3,64.5,29.97,West,270,2.0,7.0,82,0.00,,,0.29,Wunderground v.1.15,2013-10-29 19:54:00,
2013-10-29 15:00:00,70.5,64.4,29.97,West,264,2.0,2.0,81,0.00,,,0.29,Wunderground v.1.15,2013-10-29 20:00:00,
2013-10-29 15:05:00,70.5,64.4,29.97,West,278,2.0,4.0,81,0.00,,,0.29,Wunderground v.1.15,2013-10-29 20:05:00,
2013-10-29 15:11:00,70.7,64.6,29.96,West,274,2.0,2.0,81,0.00,,,0.29,Wunderground v.1.15,2013-10-29 20:11:00,
2013-10-29 15:17:00,70.8,64.7,29.96,WSW,257,1.0,2.0,81,0.00,,,0.29,Wunderground v.1.15,2013-10-29 20:17:00,
2013-10-29 15:23:00,70.8,64.3,29.96,West,269,2.0,3.0,80,0.00,,,0.29,Wunderground v.1.15,2013-10-29 20:23:00,
2013-10-29 15:28:00,70.7,64.2,29.97,WSW,243,2.0,3.0,80,0.00,,,0.29,Wunderground v.1.15,2013-10-29 20:28:00,
2013-10-29 15:34:00,70.6,64.5,29.97,WSW,257,1.0,5.0,81,0.00,,,0.29,Wunderground v.1.15,2013-10-29 20:34:00,
2013-10-29 15:40:00,70.5,64.4,29.97,SSW,211,1.0,1.0,81,0.00,,,0.29,Wunderground v.1.15,2013-10-29 20:40:00,
2013-10-29 15:46:00,70.4,64.3,29.97,SSW,207,1.0,5.0,81,0.00,,,0.29,Wunderground v.1.15,2013-10-29 20:46:00,
2013-10-29 15:52:00,70.3,64.2,29.97,SW,224,2.0,5.0,81,0.00,,,0.29,Wunderground v.1.15,2013-10-29 20:52:00,
2013-10-29 15:58:00,70.2,64.1,29.97,SW,233,1.0,5.0,81,0.00,,,0.29,Wunderground v.1.15,2013-10-29 20:58:00,
2013-10-29 16:04:00,70.1,64.3,29.97,West,267,1.0,1.0,82,0.00,,,0.29,Wunderground v.1.15,2013-10-29 21:04:00,
2013-10-29 16:09:00,70.1,64.3,29.97,SW,221,0.0,1.0,82,0.00,,,0.29,Wunderground v.1.15,2013-10-29 21:09:00,
2013-10-29 16:15:00,70.0,64.2,29.97,West,262,1.0,1.0,82,0.00,,,0.29,Wunderground v.1.15,2013-10-29 21:15:00,
2013-10-29 16:21:00,69.9,64.2,29.97,WSW,246,1.0,3.0,82,0.00,,,0.29,Wunderground v.1.15,2013-10-29 21:21:00,
2013-10-29 16:27:00,69.9,64.2,29.97,West,264,1.0,5.0,82,0.00,,,0.29,Wunderground v.1.15,2013-10-29 21:27:00,
2013-10-29 16:32:00,70.0,64.2,29.97,SW,236,2.0,6.0,82,0.00,,,0.29,Wunderground v.1.15,2013-10-29 21:32:00,
2013-10-29 16:38:00,70.0,63.9,29.97,WSW,253,2.0,6.0,81,0.00,,,0.29,Wunderground v.1.15,2013-10-29 21:38:00,
2013-10-29 16:44:00,70.0,63.9,29.97,West,259,2.0,6.0,81,0.00,,,0.29,Wunderground v.1.15,2013-10-29 21:44:00,
2013-10-29 16:50:00,69.9,64.2,29.97,WNW,287,2.0,6.0,82,0.00,,,0.29,Wunderground v.1.15,2013-10-29 21:50:00,
2013-10-29 16:56:00,69.8,64.1,29.98,WNW,293,1.0,6.0,82,0.00,,,0.29,Wunderground v.1.15,2013-10-29 21:56:00,
2013-10-29 17:02:00,69.7,64.0,29.97,SW,232,1.0,5.0,82,0.00,,,0.29,Wunderground v.1.15,2013-10-29 22:02:00,
2013-10-29 17:08:00,69.8,64.1,29.96,NNE,18,2.0,5.0,82,0.00,,,0.29,Wunderground v.1.15,2013-10-29 22:08:00,
2013-10-29 17:13:00,69.7,64.0,29.97,WSW,255,1.0,2.0,82,0.00,,,0.29,Wunderground v.1.15,2013-10-29 22:13:00,
2013-10-29 17:19:00,69.6,64.2,29.98,SW,226,1.0,2.0,83,0.00,,,0.29,Wunderground v.1.15,2013-10-29 22:19:00,
2013-10-29 17:25:00,69.5,64.1,29.98,West,265,1.0,3.0,83,0.00,,,0.29,Wunderground v.1.15,2013-10-29 22:25:00,
2013-10-29 17:31:00,69.5,64.1,29.98,South,170,1.0,8.0,83,0.00,,,0.29,Wunderground v.1.15,2013-10-29 22:31:00,
2013-10-29 17:36:00,69.4,64.0,29.98,WSW,253,0.0,8.0,83,0.00,,,0.29,Wunderground v.1.15,2013-10-29 22:36:00,
2013-10-29 17:42:00,69.3,63.9,29.98,SW,221,1.0,8.0,83,0.00,,,0.29,Wunderground v.1.15,2013-10-29 22:42:00,
2013-10-29 17:48:00,69.2,64.2,29.98,SSW,212,1.0,8.0,84,0.00,,,0.29,Wunderground v.1.15,2013-10-29 22:48:00,
2013-10-29 17:54:00,69.0,64.0,29.98,SW,226,1.0,8.0,84,0.00,,,0.29,Wunderground v.1.15,2013-10-29 22:54:00,
2013-10-29 18:00:00,68.9,63.9,29.98,West,266,1.0,1.0,84,0.00,,,0.29,Wunderground v.1.15,2013-10-29 23:00:00,
2013-10-29 18:06:00,68.8,63.8,29.98,NNE,32,0.0,1.0,84,0.00,,,0.29,Wunderground v.1.15,2013-10-29 23:06:00,
2013-10-29 18:12:00,68.7,63.7,29.98,WNW,301,0.0,0.0,84,0.00,,,0.29,Wunderground v.1.15,2013-10-29 23:12:00,
2013-10-29 18:17:00,68.6,63.9,29.98,WSW,244,0.0,1.0,85,0.00,,,0.29,Wunderground v.1.15,2013-10-29 23:17:00,
2013-10-29 18:23:00,68.5,63.8,29.98,WSW,245,0.0,0.0,85,0.00,,,0.29,Wunderground v.1.15,2013-10-29 23:23:00,
2013-10-29 18:29:00,68.3,63.6,29.99,WSW,245,0.0,0.0,85,0.00,,,0.29,Wunderground v.1.15,2013-10-29 23:29:00,
2013-10-29 18:35:00,68.2,63.9,29.99,WSW,245,0.0,6.0,86,0.00,,,0.29,Wunderground v.1.15,2013-10-29 23:35:00,
2013-10-29 18:40:00,68.1,63.8,30.00,WSW,245,0.0,6.0,86,0.00,,,0.29,Wunderground v.1.15,2013-10-29 23:40:00,
2013-10-29 18:46:00,67.9,63.6,30.00,WNW,283,0.0,6.0,86,0.00,,,0.29,Wunderground v.1.15,2013-10-29 23:46:00,
2013-10-29 18:52:00,68.1,63.8,30.00,West,264,0.0,6.0,86,0.00,,,0.29,Wunderground v.1.15,2013-10-29 23:52:00,
2013-10-29 18:58:00,68.0,63.7,30.00,West,264,0.0,6.0,86,0.00,,,0.29,Wunderground v.1.15,2013-10-29 23:58:00,
2013-10-29 19:04:00,68.0,64.0,30.01,West,264,0.0,0.0,87,0.00,,,0.29,Wunderground v.1.15,2013-10-30 00:04:00,
2013-10-29 19:10:00,67.9,63.9,30.01,SW,219,0.0,0.0,87,0.00,,,0.29,Wunderground v.1.15,2013-10-30 00:10:00,
2013-10-29 19:16:00,67.7,63.7,30.01,SW,219,0.0,0.0,87,0.00,,,0.29,Wunderground v.1.15,2013-10-30 00:16:00,
2013-10-29 19:21:00,67.6,63.9,30.01,SW,219,0.0,0.0,88,0.00,,,0.29,Wunderground v.1.15,2013-10-30 00:21:00,
2013-10-29 19:27:00,67.5,63.8,30.01,SW,214,0.0,1.0,88,0.00,,,0.29,Wunderground v.1.15,2013-10-30 00:27:00,
2013-10-29 19:33:00,67.2,63.8,30.01,SW,214,0.0,1.0,89,0.00,,,0.29,Wunderground v.1.15,2013-10-30 00:33:00,
2013-10-29 19:39:00,67.0,64.0,30.01,SW,214,0.0,1.0,90,0.00,,,0.29,Wunderground v.1.15,2013-10-30 00:39:00,
2013-10-29 19:44:00,66.7,63.7,30.02,SW,214,0.0,1.0,90,0.00,,,0.29,Wunderground v.1.15,2013-10-30 00:44:00,
2013-10-29 19:50:00,66.4,63.7,30.02,SW,214,0.0,1.0,91,0.00,,,0.30,Wunderground v.1.15,2013-10-30 00:50:00,
2013-10-29 19:56:00,66.2,63.8,30.02,SW,214,0.0,1.0,92,0.00,,,0.30,Wunderground v.1.15,2013-10-30 00:56:00,
2013-10-29 20:02:00,66.0,63.6,30.01,SW,214,0.0,0.0,92,0.00,,,0.30,Wunderground v.1.15,2013-10-30 01:02:00,
2013-10-29 20:07:00,65.8,63.7,30.02,SW,214,0.0,0.0,93,0.00,,,0.30,Wunderground v.1.15,2013-10-30 01:07:00,
2013-10-29 20:13:00,65.6,63.5,30.01,SW,214,0.0,0.0,93,0.00,,,0.30,Wunderground v.1.15,2013-10-30 01:13:00,
2013-10-29 20:19:00,65.4,63.6,30.02,SW,214,0.0,0.0,94,0.00,,,0.30,Wunderground v.1.15,2013-10-30 01:19:00,
2013-10-29 20:24:00,65.4,63.6,30.02,SW,214,0.0,1.0,94,0.00,,,0.30,Wunderground v.1.15,2013-10-30 01:24:00,
2013-10-29 20:30:00,65.3,63.5,30.02,SW,214,0.0,0.0,94,0.00,,,0.30,Wunderground v.1.15,2013-10-30 01:30:00,
2013-10-29 20:36:00,65.3,63.5,30.01,SW,214,0.0,1.0,94,0.00,,,0.30,Wunderground v.1.15,2013-10-30 01:36:00,
2013-10-29 20:41:00,65.2,63.7,30.02,SW,214,0.0,1.0,95,0.00,,,0.30,Wunderground v.1.15,2013-10-30 01:41:00,
2013-10-29 20:47:00,65.1,63.6,30.02,SW,214,0.0,1.0,95,0.00,,,0.30,Wunderground v.1.15,2013-10-30 01:47:00,
2013-10-29 20:53:00,65.0,63.5,30.02,SW,214,0.0,1.0,95,0.00,,,0.30,Wunderground v.1.15,2013-10-30 01:53:00,
2013-10-29 20:58:00,65.1,63.6,30.02,SW,214,0.0,1.0,95,0.00,,,0.30,Wunderground v.1.15,2013-10-30 01:58:00,
2013-10-29 21:04:00,65.0,63.5,30.02,SW,214,0.0,0.0,95,0.00,,,0.30,Wunderground v.1.15,2013-10-30 02:04:00,
2013-10-29 21:10:00,64.9,63.4,30.02,SW,214,0.0,0.0,95,0.00,,,0.30,Wunderground v.1.15,2013-10-30 02:10:00,
2013-10-29 21:16:00,65.0,63.5,30.02,SW,214,0.0,0.0,95,0.00,,,0.30,Wunderground v.1.15,2013-10-30 02:16:00,
2013-10-29 21:21:00,65.0,63.8,30.02,SW,214,0.0,0.0,96,0.00,,,0.30,Wunderground v.1.15,2013-10-30 02:21:00,
2013-10-29 21:27:00,65.0,63.8,30.02,SW,214,0.0,0.0,96,0.00,,,0.30,Wunderground v.1.15,2013-10-30 02:27:00,
2013-10-29 21:33:00,64.8,63.3,30.02,SW,214,0.0,1.0,95,0.00,,,0.30,Wunderground v.1.15,2013-10-30 02:33:00,
2013-10-29 21:39:00,64.6,63.1,30.02,SW,214,0.0,1.0,95,0.00,,,0.30,Wunderground v.1.15,2013-10-30 02:39:00,
2013-10-29 21:44:00,64.6,63.4,30.01,SW,214,0.0,1.0,96,0.00,,,0.30,Wunderground v.1.15,2013-10-30 02:44:00,
2013-10-29 21:50:00,64.5,63.3,30.01,SW,214,0.0,1.0,96,0.00,,,0.30,Wunderground v.1.15,2013-10-30 02:50:00,
2013-10-29 21:56:00,64.5,63.3,30.01,SW,214,0.0,1.0,96,0.00,,,0.31,Wunderground v.1.15,2013-10-30 02:56:00,
2013-10-29 22:02:00,64.5,63.3,30.01,SW,214,0.0,0.0,96,0.00,,,0.31,Wunderground v.1.15,2013-10-30 03:02:00,
2013-10-29 22:08:00,64.3,63.1,30.01,SW,214,0.0,0.0,96,0.00,,,0.31,Wunderground v.1.15,2013-10-30 03:08:00,
2013-10-29 22:14:00,64.3,63.1,30.01,SW,214,0.0,0.0,96,0.00,,,0.31,Wunderground v.1.15,2013-10-30 03:14:00,
2013-10-29 22:20:00,64.2,63.0,30.01,SW,214,0.0,0.0,96,0.00,,,0.31,Wunderground v.1.15,2013-10-30 03:20:00,
2013-10-29 22:25:00,64.2,63.0,30.01,SW,214,0.0,0.0,96,0.00,,,0.31,Wunderground v.1.15,2013-10-30 03:25:00,
2013-10-29 22:31:00,64.2,63.0,30.01,SW,214,0.0,0.0,96,0.00,,,0.31,Wunderground v.1.15,2013-10-30 03:31:00,
2013-10-29 22:37:00,64.2,63.0,30.01,SW,214,0.0,0.0,96,0.00,,,0.31,Wunderground v.1.15,2013-10-30 03:37:00,
2013-10-29 22:43:00,64.1,62.9,30.01,SW,214,0.0,0.0,96,0.00,,,0.31,Wunderground v.1.15,2013-10-30 03:43:00,
2013-10-29 22:48:00,64.2,63.0,30.01,SW,214,0.0,0.0,96,0.00,,,0.31,Wunderground v.1.15,2013-10-30 03:48:00,
2013-10-29 22:54:00,64.2,63.0,30.01,SW,214,0.0,0.0,96,0.00,,,0.31,Wunderground v.1.15,2013-10-30 03:54:00,
2013-10-29 23:00:00,64.2,63.0,30.01,SW,214,0.0,0.0,96,0.00,,,0.31,Wunderground v.1.15,2013-10-30 04:00:00,
2013-10-29 23:01:00,64.2,63.0,30.01,SW,214,0.0,0.0,96,0.00,,,0.31,Wunderground v.1.15,2013-10-30 04:01:00,
2013-10-29 23:03:00,64.2,63.0,30.01,SW,214,0.0,0.0,96,0.00,,,0.31,Wunderground v.1.15,2013-10-30 04:03:00,
2013-10-29 23:04:00,64.2,63.0,30.01,SW,214,0.0,0.0,96,0.00,,,0.31,Wunderground v.1.15,2013-10-30 04:04:00,
2013-10-29 23:05:00,64.2,63.0,30.01,SW,214,0.0,0.0,96,0.00,,,0.31,Wunderground v.1.15,2013-10-30 04:05:00,
2013-10-29 23:06:00,64.1,62.9,30.01,SW,214,0.0,0.0,96,0.00,,,0.31,Wunderground v.1.15,2013-10-30 04:06:00,
2013-10-29 23:08:00,64.1,62.9,30.01,SW,214,0.0,0.0,96,0.00,,,0.31,Wunderground v.1.15,2013-10-30 04:08:00,
2013-10-29 23:14:00,63.9,62.7,30.01,SW,214,0.0,0.0,96,0.00,,,0.31,Wunderground v.1.15,2013-10-30 04:14:00,
2013-10-29 23:20:00,64.0,62.8,30.01,SW,214,0.0,0.0,96,0.00,,,0.31,Wunderground v.1.15,2013-10-30 04:20:00,
2013-10-29 23:26:00,64.0,62.8,30.01,SW,214,0.0,0.0,96,0.00,,,0.31,Wunderground v.1.15,2013-10-30 04:26:00,
2013-10-29 23:31:00,64.3,63.1,30.00,SE,146,0.0,1.0,96,0.00,,,0.31,Wunderground v.1.15,2013-10-30 04:31:00,
2013-10-29 23:37:00,64.3,63.1,30.00,SE,146,0.0,1.0,96,0.00,,,0.31,Wunderground v.1.15,2013-10-30 04:37:00,
2013-10-29 23:43:00,64.2,63.0,30.01,SE,146,0.0,1.0,96,0.00,,,0.31,Wunderground v.1.15,2013-10-30 04:43:00,
2013-10-29 23:49:00,64.3,63.1,30.01,SSE,153,0.0,1.0,96,0.00,,,0.31,Wunderground v.1.15,2013-10-30 04:49:00,
2013-10-29 23:55:00,64.3,63.1,30.01,South,181,0.0,1.0,96,0.00,,,0.31,Wunderground v.1.15,2013-10-30 04:55:00,